International Virtual Aviation Organisation

Russian Federation and Kazakhstan MCD

 

Карточка аэропорта ULLI

Внимание!
Информация на этой странице в стадии наполнения.
Если вы не увидели какой-то информации, или заметили неточность - пожалуйста сообщите нам!
Спасибо!
Команда RU-STAFF
Название аэропортаПулково
Название аэропорта (англ.)Pulkovo
Превышение79 ft. (24.1 m.)
Координаты59°48.018', 30°15.75'
Высота перехода3500ft
Эшелон переходаQNH>=747mm:FL50; QNH<747=>720:FL60; QNH<720:FL70
Коды ответчика0701-0777, 5701-5727
Зона ОрВДСанкт-Петербург РПИ (ULLL)
Данные METARULLI 130930Z 17004MPS 9999 BKN009 BKN016 02/01 Q1008 R88/290050 NOSIG
Проноз погоды (TAF)ULLI 130759Z 1309/1409 16005MPS 6000 BKN011 BKN015 TEMPO 1309/1318 18005G10MPS 3100 -SHRASN BR BKN010 BKN015CB TEMPO 1318/1409 15007MPS 3100 -DZ BR BKN006 OVC011
NOTAMshow/hide NOTAM
AWOS   TABLE

Информация о ВПП

ВПП Длина ВПП (м.) Покрытие Курс ВПП Частота ILS
10L3397Цементобетон96110.5
28R3397Цементобетон276111.3
10R3780Цементобетон96111.9
28L3780Цементобетон276108.9

Диспетчерские позиции

Позывной Наименование органа УВД Частота
ULLI_GNDПулково-Руление121.7
ULLI_TWRПулково-Вышка118.1
ULLI_APPПетербург-Подход119.3
ULLI_R_APPПулково-Круг120.3
ULLI_DELПулково-Деливери121.9



Спутниковое изображение